Find WHDW 09-02

NORAD ID: 65229 Int'l Des: 2025-178 Owner: ZXW Country: CN Constellation: xingwang operational
LEOCIRCULARPOLARONEWEB_TYPE

現在のビュー

3D地球を読み込み中...

WHDW 09-02について

説明を読み込み中...

次回通過

Passes for default location (London). Set your location on the main map for personalized predictions.

高度履歴

Loading altitude history...

軌道要素

1 65229U 25178B 26159.13273308 .00000010 00000-0 -10555-4 0 9999
2 65229 86.5008 16.6352 0001786 88.5642 271.5696 13.24413962 39116
Epoch: Jun 8, 2026 • Age: 5 hours

現在のステータス

高度 1169.8 km
速度 7.27 km/s
衛星直下点 10.57°N, 9.71°W
打ち上げ日 Aug 17, 2025
運用期間 0.8 years
タイプ other

技術仕様

分類 Payload
質量 800.00 kg
乾燥質量 800.00 kg
総質量 800.00 kg
長さ 3.00 m
直径 1.00 m
スパン 10.00 m
形状 Box + 2 Pan
製造者 CAST
バスタイプ Xingwang C
フェーズステータス In Orbit
所有者/国 ZXW/CN

Most Searched